Location: Gradaro
(45.0833°N, 10.8833°E)
Time: 00:09:20
(UTC+00:00)

Cosmos 2263 Rocket - Pass Details

Date: 22 April 2021
Orbit: 824 x 848 km, 71.0° (Epoch: 15 May)

Event Time Altitude Azimuth Distance (km) Brightness Sun altitude
Exits shadow 00:15:06 - 290° (WNW) 2,832 5.0 -31.1°
Reaches altitude 10° 00:18:15 10° 319° (NW) 2,433 4.9 -31.0°
Maximum altitude 00:18:54 10° 325° (NW) 2,421 5.0 -30.9°
Drops below altitude 10° 00:19:33 10° 332° (NNW) 2,435 5.1 -30.9°
Sets 00:24:57 0° 15° (NNE) 3,379 6.5 -30.6°
